Time,TemperatureF,DewpointF,PressureIn,WindDirection,WindDirectionDegrees,WindSpeedMPH,WindSpeedGustMPH,Humidity,HourlyPrecipIn,Conditions,Clouds,dailyrainin,SoftwareType,DateUTC
2013-11-17 00:01:00,58.3,51.1,29.88,South,180,15.0,26.0,77,0.00,,,0.00,meteohub,2013-11-17 05:01:00,
2013-11-17 00:02:00,58.3,51.1,29.88,SSW,197,18.0,26.0,77,0.00,,,0.00,meteohub,2013-11-17 05:02:00,
2013-11-17 00:04:00,58.5,51.3,29.88,South,190,11.0,26.0,77,0.00,,,0.00,meteohub,2013-11-17 05:04:00,
2013-11-17 00:05:00,58.5,51.3,29.88,South,191,14.0,26.0,77,0.00,,,0.00,meteohub,2013-11-17 05:05:00,
2013-11-17 00:10:00,58.6,51.4,29.88,SSE,168,13.0,24.0,77,0.00,,,0.00,meteohub,2013-11-17 05:10:00,
2013-11-17 00:12:00,58.6,51.4,29.87,South,182,16.0,26.0,77,0.00,,,0.00,meteohub,2013-11-17 05:12:00,
2013-11-17 00:17:00,58.8,51.6,29.87,SSW,211,16.0,26.0,77,0.00,,,0.00,meteohub,2013-11-17 05:17:00,
2013-11-17 00:22:00,58.8,51.6,29.86,SSW,194,22.0,26.0,77,0.00,,,0.00,meteohub,2013-11-17 05:22:00,
2013-11-17 00:28:00,58.8,51.6,29.86,SW,232,17.0,26.0,77,0.00,,,0.00,meteohub,2013-11-17 05:28:00,
2013-11-17 00:33:00,58.8,51.6,29.87,SSW,194,12.0,25.0,77,0.00,,,0.00,meteohub,2013-11-17 05:33:00,
2013-11-17 00:38:00,58.6,51.4,29.87,SSE,149,15.0,25.0,77,0.00,,,0.00,meteohub,2013-11-17 05:38:00,
2013-11-17 00:43:00,58.6,51.4,29.86,South,174,10.0,25.0,77,0.00,,,0.00,meteohub,2013-11-17 05:43:00,
2013-11-17 00:48:00,58.6,51.4,29.87,SSE,159,14.0,24.0,77,0.00,,,0.00,meteohub,2013-11-17 05:48:00,
2013-11-17 00:53:00,58.8,51.6,29.86,SSE,166,12.0,22.0,77,0.00,,,0.00,meteohub,2013-11-17 05:53:00,
2013-11-17 00:58:00,59.0,51.8,29.85,South,190,11.0,22.0,77,0.00,,,0.00,meteohub,2013-11-17 05:58:00,
2013-11-17 01:04:00,59.0,51.8,29.86,South,174,21.0,22.0,77,0.00,,,0.00,meteohub,2013-11-17 06:04:00,
2013-11-17 01:09:00,59.2,51.6,29.85,South,176,13.0,22.0,76,0.00,,,0.00,meteohub,2013-11-17 06:09:00,
2013-11-17 01:14:00,59.4,51.8,29.85,SSW,194,21.0,26.0,76,0.00,,,0.00,meteohub,2013-11-17 06:14:00,
2013-11-17 01:19:00,59.7,52.2,29.85,SSW,192,13.0,26.0,76,0.00,,,0.00,meteohub,2013-11-17 06:19:00,
2013-11-17 01:24:00,59.5,52.0,29.86,South,184,13.0,33.0,76,0.00,,,0.00,meteohub,2013-11-17 06:24:00,
2013-11-17 01:29:00,59.7,52.2,29.86,South,187,16.0,33.0,76,0.00,,,0.00,meteohub,2013-11-17 06:29:00,
2013-11-17 01:34:00,59.9,52.0,29.86,SSE,167,23.0,33.0,75,0.00,,,0.00,meteohub,2013-11-17 06:34:00,
2013-11-17 01:40:00,59.9,52.0,29.87,SW,219,13.0,25.0,75,0.00,,,0.00,meteohub,2013-11-17 06:40:00,
2013-11-17 01:45:00,59.9,52.0,29.87,South,178,20.0,29.0,75,0.00,,,0.00,meteohub,2013-11-17 06:45:00,
2013-11-17 01:50:00,60.1,52.2,29.87,SSW,195,9.0,29.0,75,0.00,,,0.00,meteohub,2013-11-17 06:50:00,
2013-11-17 01:55:00,59.7,52.2,29.87,SSW,204,19.0,25.0,76,0.00,,,0.00,meteohub,2013-11-17 06:55:00,
2013-11-17 02:00:00,59.7,51.8,29.87,South,187,11.0,25.0,75,0.00,,,0.00,meteohub,2013-11-17 07:00:00,
2013-11-17 02:05:00,59.9,52.0,29.86,SSE,164,17.0,22.0,75,0.00,,,0.00,meteohub,2013-11-17 07:05:00,
2013-11-17 02:10:00,59.9,52.0,29.85,SSW,199,7.0,26.0,75,0.00,,,0.00,meteohub,2013-11-17 07:10:00,
2013-11-17 02:15:00,59.7,51.8,29.86,SW,230,11.0,26.0,75,0.00,,,0.00,meteohub,2013-11-17 07:15:00,
2013-11-17 02:20:00,59.7,52.2,29.85,South,171,13.0,26.0,76,0.00,,,0.00,meteohub,2013-11-17 07:20:00,
2013-11-17 02:26:00,59.7,52.2,29.85,South,182,12.0,26.0,76,0.00,,,0.00,meteohub,2013-11-17 07:26:00,
2013-11-17 02:31:00,60.1,52.2,29.85,South,178,16.0,26.0,75,0.00,,,0.00,meteohub,2013-11-17 07:31:00,
2013-11-17 02:36:00,59.7,52.2,29.84,SSE,167,10.0,26.0,76,0.00,,,0.00,meteohub,2013-11-17 07:36:00,
2013-11-17 02:41:00,60.1,52.2,29.85,WSW,244,20.0,23.0,75,0.00,,,0.00,meteohub,2013-11-17 07:41:00,
2013-11-17 02:46:00,60.3,52.7,29.84,South,171,22.0,30.0,76,0.00,,,0.00,meteohub,2013-11-17 07:46:00,
2013-11-17 02:51:00,60.4,52.5,29.84,SSW,193,13.0,30.0,75,0.00,,,0.00,meteohub,2013-11-17 07:51:00,
2013-11-17 02:56:00,60.3,52.7,29.83,SSW,195,12.0,30.0,76,0.00,,,0.00,meteohub,2013-11-17 07:56:00,
2013-11-17 03:01:00,60.1,52.5,29.82,SSE,156,12.0,28.0,76,0.00,,,0.00,meteohub,2013-11-17 08:01:00,
2013-11-17 03:06:00,60.3,52.7,29.82,SSE,155,11.0,25.0,76,0.00,,,0.00,meteohub,2013-11-17 08:06:00,
2013-11-17 03:12:00,60.3,52.7,29.82,SW,224,9.0,22.0,76,0.00,,,0.00,meteohub,2013-11-17 08:12:00,
2013-11-17 03:17:00,59.9,52.3,29.82,South,179,15.0,27.0,76,0.00,,,0.00,meteohub,2013-11-17 08:17:00,
2013-11-17 03:22:00,59.5,52.0,29.82,SW,227,17.0,27.0,76,0.00,,,0.00,meteohub,2013-11-17 08:22:00,
2013-11-17 03:27:00,59.0,51.8,29.81,SSE,164,15.0,26.0,77,0.00,,,0.00,meteohub,2013-11-17 08:27:00,
2013-11-17 03:32:00,59.0,52.2,29.81,SSE,160,17.0,28.0,78,0.00,,,0.00,meteohub,2013-11-17 08:32:00,
2013-11-17 03:37:00,59.0,52.2,29.83,SW,225,17.0,29.0,78,0.00,,,0.00,meteohub,2013-11-17 08:37:00,
2013-11-17 03:42:00,59.0,52.2,29.82,South,175,9.0,29.0,78,0.00,,,0.00,meteohub,2013-11-17 08:42:00,
2013-11-17 03:47:00,59.0,52.5,29.82,SSW,210,13.0,29.0,79,0.00,,,0.00,meteohub,2013-11-17 08:47:00,
2013-11-17 03:53:00,58.3,52.5,29.81,South,190,12.0,27.0,81,0.00,,,0.00,meteohub,2013-11-17 08:53:00,
2013-11-17 03:58:00,57.4,52.5,29.82,South,185,13.0,29.0,84,0.00,,,0.00,meteohub,2013-11-17 08:58:00,
2013-11-17 04:03:00,56.5,52.3,29.81,SSE,157,12.0,29.0,86,0.00,,,0.00,meteohub,2013-11-17 09:03:00,
2013-11-17 04:08:00,55.9,52.5,29.82,SSW,193,7.0,29.0,88,0.01,,,0.01,meteohub,2013-11-17 09:08:00,
2013-11-17 04:13:00,55.8,52.3,29.81,SW,220,9.0,26.0,88,0.01,,,0.01,meteohub,2013-11-17 09:13:00,
2013-11-17 04:18:00,55.6,52.3,29.81,South,180,19.0,21.0,89,0.01,,,0.01,meteohub,2013-11-17 09:18:00,
2013-11-17 04:23:00,55.4,52.5,29.80,SSE,165,15.0,24.0,90,0.01,,,0.01,meteohub,2013-11-17 09:23:00,
2013-11-17 04:28:00,55.6,52.7,29.81,SSE,155,18.0,30.0,90,0.01,,,0.01,meteohub,2013-11-17 09:28:00,
2013-11-17 04:34:00,55.6,52.7,29.81,SSW,204,16.0,30.0,90,0.01,,,0.01,meteohub,2013-11-17 09:34:00,
2013-11-17 04:39:00,55.9,52.7,29.80,SSE,154,26.0,32.0,89,0.01,,,0.01,meteohub,2013-11-17 09:39:00,
2013-11-17 04:44:00,55.8,52.5,29.80,SSW,202,14.0,32.0,89,0.01,,,0.01,meteohub,2013-11-17 09:44:00,
2013-11-17 04:49:00,55.8,52.5,29.79,SW,217,24.0,32.0,89,0.01,,,0.01,meteohub,2013-11-17 09:49:00,
2013-11-17 04:54:00,56.1,52.9,29.80,SSW,201,18.0,29.0,89,0.01,,,0.01,meteohub,2013-11-17 09:54:00,
2013-11-17 05:00:00,56.5,52.9,29.81,South,190,23.0,28.0,88,0.01,,,0.01,meteohub,2013-11-17 10:00:00,
2013-11-17 05:05:00,56.7,53.1,29.79,SSW,207,24.0,31.0,88,0.01,,,0.01,meteohub,2013-11-17 10:05:00,
2013-11-17 05:10:00,56.7,53.1,29.81,SW,234,15.0,29.0,88,0.00,,,0.01,meteohub,2013-11-17 10:10:00,
2013-11-17 05:15:00,56.7,53.4,29.79,South,186,17.0,31.0,89,0.00,,,0.01,meteohub,2013-11-17 10:15:00,
2013-11-17 05:20:00,56.8,53.6,29.81,SW,228,19.0,31.0,89,0.00,,,0.01,meteohub,2013-11-17 10:20:00,
2013-11-17 05:25:00,56.7,53.4,29.80,SSW,196,24.0,31.0,89,0.00,,,0.01,meteohub,2013-11-17 10:25:00,
2013-11-17 05:31:00,56.7,53.8,29.80,SSE,164,22.0,30.0,90,0.00,,,0.01,meteohub,2013-11-17 10:31:00,
2013-11-17 05:36:00,57.6,54.3,29.79,SSW,200,17.0,40.0,89,0.00,,,0.01,meteohub,2013-11-17 10:36:00,
2013-11-17 05:41:00,57.2,54.0,29.81,SSW,207,18.0,40.0,89,0.00,,,0.01,meteohub,2013-11-17 10:41:00,
2013-11-17 05:46:00,56.7,53.8,29.81,SSW,194,27.0,40.0,90,0.00,,,0.01,meteohub,2013-11-17 10:46:00,
2013-11-17 05:51:00,56.7,54.1,29.80,SW,220,18.0,31.0,91,0.01,,,0.02,meteohub,2013-11-17 10:51:00,
2013-11-17 05:56:00,56.7,54.1,29.80,South,187,17.0,27.0,91,0.01,,,0.02,meteohub,2013-11-17 10:56:00,
2013-11-17 06:01:00,57.0,54.5,29.80,SSW,201,21.0,27.0,91,0.01,,,0.02,meteohub,2013-11-17 11:01:00,
2013-11-17 06:06:00,57.4,54.5,29.80,South,173,19.0,25.0,90,0.01,,,0.02,meteohub,2013-11-17 11:06:00,
2013-11-17 06:11:00,57.4,54.5,29.80,South,184,17.0,33.0,90,0.01,,,0.02,meteohub,2013-11-17 11:11:00,
2013-11-17 06:16:00,57.4,54.5,29.80,SW,214,18.0,33.0,90,0.01,,,0.02,meteohub,2013-11-17 11:16:00,
2013-11-17 06:21:00,57.6,54.3,29.80,SW,221,26.0,30.0,89,0.01,,,0.02,meteohub,2013-11-17 11:21:00,
2013-11-17 06:26:00,57.7,54.1,29.79,SSE,163,16.0,33.0,88,0.01,,,0.02,meteohub,2013-11-17 11:26:00,
2013-11-17 06:32:00,57.7,54.1,29.80,South,173,17.0,33.0,88,0.01,,,0.02,meteohub,2013-11-17 11:32:00,
2013-11-17 06:37:00,57.6,54.0,29.81,SW,219,19.0,33.0,88,0.01,,,0.02,meteohub,2013-11-17 11:37:00,
2013-11-17 06:42:00,57.7,54.5,29.81,South,188,16.0,33.0,89,0.01,,,0.02,meteohub,2013-11-17 11:42:00,
2013-11-17 06:47:00,58.1,54.9,29.81,SW,217,20.0,33.0,89,0.01,,,0.02,meteohub,2013-11-17 11:47:00,
2013-11-17 06:52:00,58.1,54.9,29.81,South,189,16.0,31.0,89,0.00,,,0.02,meteohub,2013-11-17 11:52:00,
2013-11-17 06:57:00,57.7,54.5,29.81,SW,219,20.0,39.0,89,0.00,,,0.02,meteohub,2013-11-17 11:57:00,
2013-11-17 07:02:00,57.4,54.9,29.81,SW,224,20.0,39.0,91,0.01,,,0.02,meteohub,2013-11-17 12:02:00,
2013-11-17 07:07:00,56.8,54.9,29.81,SSW,205,11.0,39.0,93,0.02,,,0.04,meteohub,2013-11-17 12:07:00,
2013-11-17 07:12:00,56.5,54.5,29.80,SE,139,17.0,37.0,93,0.02,,,0.04,meteohub,2013-11-17 12:12:00,
2013-11-17 07:17:00,56.1,54.5,29.80,SSE,166,15.0,30.0,94,0.03,,,0.05,meteohub,2013-11-17 12:17:00,
2013-11-17 07:22:00,56.1,54.5,29.79,SSW,196,15.0,28.0,94,0.03,,,0.05,meteohub,2013-11-17 12:22:00,
2013-11-17 07:27:00,56.1,54.5,29.79,South,171,14.0,28.0,94,0.03,,,0.05,meteohub,2013-11-17 12:27:00,
2013-11-17 07:32:00,56.5,54.9,29.78,SSE,163,17.0,28.0,94,0.03,,,0.05,meteohub,2013-11-17 12:32:00,
2013-11-17 07:37:00,56.5,54.5,29.78,South,178,15.0,31.0,93,0.03,,,0.05,meteohub,2013-11-17 12:37:00,
2013-11-17 07:42:00,56.5,54.5,29.78,SSW,200,20.0,31.0,93,0.03,,,0.05,meteohub,2013-11-17 12:42:00,
2013-11-17 07:47:00,56.3,54.3,29.78,SSW,194,11.0,31.0,93,0.03,,,0.05,meteohub,2013-11-17 12:47:00,
2013-11-17 07:52:00,56.3,54.3,29.78,South,188,15.0,29.0,93,0.03,,,0.05,meteohub,2013-11-17 12:52:00,
2013-11-17 07:57:00,56.3,54.3,29.77,South,184,19.0,31.0,93,0.03,,,0.05,meteohub,2013-11-17 12:57:00,
2013-11-17 08:02:00,56.5,54.5,29.77,SSW,194,15.0,31.0,93,0.02,,,0.05,meteohub,2013-11-17 13:02:00,
2013-11-17 08:07:00,56.5,54.5,29.77,South,186,14.0,33.0,93,0.01,,,0.05,meteohub,2013-11-17 13:07:00,
2013-11-17 08:12:00,56.7,54.7,29.76,South,189,23.0,33.0,93,0.01,,,0.05,meteohub,2013-11-17 13:12:00,
2013-11-17 08:17:00,57.0,55.0,29.76,South,175,9.0,33.0,93,0.00,,,0.05,meteohub,2013-11-17 13:17:00,
2013-11-17 08:22:00,57.4,55.0,29.76,South,182,12.0,29.0,92,0.00,,,0.05,meteohub,2013-11-17 13:22:00,
2013-11-17 08:27:00,57.6,55.2,29.76,South,180,13.0,31.0,92,0.01,,,0.06,meteohub,2013-11-17 13:27:00,
2013-11-17 08:32:00,57.6,55.2,29.76,SSW,210,19.0,31.0,92,0.01,,,0.06,meteohub,2013-11-17 13:32:00,
2013-11-17 08:37:00,57.7,55.2,29.77,SSW,212,11.0,31.0,91,0.01,,,0.06,meteohub,2013-11-17 13:37:00,
2013-11-17 08:42:00,57.7,55.2,29.77,SSW,194,14.0,28.0,91,0.01,,,0.06,meteohub,2013-11-17 13:42:00,
2013-11-17 08:47:00,57.7,55.2,29.76,SW,221,15.0,28.0,91,0.01,,,0.06,meteohub,2013-11-17 13:47:00,
2013-11-17 08:52:00,57.9,55.2,29.76,South,190,17.0,28.0,91,0.01,,,0.06,meteohub,2013-11-17 13:52:00,
2013-11-17 08:57:00,58.1,55.2,29.75,SW,226,11.0,26.0,90,0.01,,,0.06,meteohub,2013-11-17 13:57:00,
2013-11-17 09:02:00,58.3,55.4,29.75,South,176,13.0,26.0,90,0.01,,,0.06,meteohub,2013-11-17 14:02:00,
2013-11-17 09:07:00,58.3,55.4,29.75,South,190,15.0,25.0,90,0.01,,,0.06,meteohub,2013-11-17 14:07:00,
2013-11-17 09:12:00,58.5,55.6,29.75,South,190,24.0,24.0,90,0.01,,,0.06,meteohub,2013-11-17 14:12:00,
2013-11-17 09:17:00,58.6,55.8,29.75,SSE,163,19.0,32.0,90,0.01,,,0.06,meteohub,2013-11-17 14:17:00,
2013-11-17 09:22:00,58.6,55.8,29.75,SSE,157,20.0,32.0,90,0.00,,,0.06,meteohub,2013-11-17 14:22:00,
2013-11-17 09:27:00,58.8,55.9,29.74,SSW,196,13.0,32.0,90,0.00,,,0.06,meteohub,2013-11-17 14:27:00,
2013-11-17 09:32:00,59.0,55.8,29.74,SW,215,20.0,29.0,89,0.00,,,0.06,meteohub,2013-11-17 14:32:00,
2013-11-17 09:37:00,59.0,55.8,29.74,SW,229,15.0,29.0,89,0.00,,,0.06,meteohub,2013-11-17 14:37:00,
2013-11-17 09:42:00,59.0,55.8,29.74,WSW,241,18.0,29.0,89,0.00,,,0.06,meteohub,2013-11-17 14:42:00,
2013-11-17 09:47:00,59.0,55.8,29.74,SSW,211,24.0,32.0,89,0.00,,,0.06,meteohub,2013-11-17 14:47:00,
2013-11-17 09:52:00,59.4,56.1,29.74,SW,214,18.0,32.0,89,0.00,,,0.06,meteohub,2013-11-17 14:52:00,
2013-11-17 09:57:00,59.4,56.1,29.74,South,186,22.0,37.0,89,0.00,,,0.06,meteohub,2013-11-17 14:57:00,
2013-11-17 10:02:00,59.5,56.3,29.74,SW,234,17.0,37.0,89,0.00,,,0.06,meteohub,2013-11-17 15:02:00,
2013-11-17 10:07:00,59.5,56.3,29.74,SSW,210,11.0,37.0,89,0.00,,,0.06,meteohub,2013-11-17 15:07:00,
2013-11-17 10:12:00,59.7,56.5,29.74,SSW,198,18.0,30.0,89,0.00,,,0.06,meteohub,2013-11-17 15:12:00,
2013-11-17 10:17:00,59.7,56.5,29.74,WSW,238,7.0,28.0,89,0.00,,,0.06,meteohub,2013-11-17 15:17:00,
2013-11-17 10:22:00,59.9,56.7,29.73,SW,234,13.0,25.0,89,0.00,,,0.06,meteohub,2013-11-17 15:22:00,
2013-11-17 10:27:00,60.3,56.7,29.73,SSW,207,29.0,29.0,88,0.00,,,0.06,meteohub,2013-11-17 15:27:00,
2013-11-17 10:32:00,60.4,56.8,29.73,South,188,28.0,30.0,88,0.00,,,0.06,meteohub,2013-11-17 15:32:00,
2013-11-17 10:37:00,60.4,56.8,29.73,SSW,211,16.0,38.0,88,0.00,,,0.06,meteohub,2013-11-17 15:37:00,
2013-11-17 10:42:00,60.4,56.8,29.73,South,190,20.0,38.0,88,0.00,,,0.06,meteohub,2013-11-17 15:42:00,
2013-11-17 10:47:00,60.4,56.8,29.73,SSW,192,25.0,38.0,88,0.00,,,0.06,meteohub,2013-11-17 15:47:00,
2013-11-17 10:52:00,60.4,56.8,29.73,SSW,201,26.0,35.0,88,0.00,,,0.06,meteohub,2013-11-17 15:52:00,
2013-11-17 10:57:00,60.3,56.7,29.73,SSW,200,24.0,38.0,88,0.00,,,0.06,meteohub,2013-11-17 15:57:00,
2013-11-17 11:02:00,60.4,56.8,29.73,SSW,210,18.0,38.0,88,0.00,,,0.06,meteohub,2013-11-17 16:02:00,
2013-11-17 11:07:00,60.3,56.7,29.73,SW,230,17.0,38.0,88,0.00,,,0.06,meteohub,2013-11-17 16:07:00,
2013-11-17 11:12:00,60.3,56.7,29.73,SSW,203,19.0,32.0,88,0.00,,,0.06,meteohub,2013-11-17 16:12:00,
2013-11-17 11:17:00,60.3,56.7,29.72,South,190,11.0,38.0,88,0.00,,,0.06,meteohub,2013-11-17 16:17:00,
2013-11-17 11:22:00,60.3,56.7,29.73,SW,235,16.0,38.0,88,0.00,,,0.06,meteohub,2013-11-17 16:22:00,
2013-11-17 11:27:00,60.4,56.8,29.72,SSW,194,18.0,38.0,88,0.00,,,0.06,meteohub,2013-11-17 16:27:00,
2013-11-17 11:32:00,60.4,56.8,29.71,SSW,195,17.0,32.0,88,0.00,,,0.06,meteohub,2013-11-17 16:32:00,
2013-11-17 11:37:00,60.6,57.0,29.70,South,175,21.0,32.0,88,0.00,,,0.06,meteohub,2013-11-17 16:37:00,
2013-11-17 11:42:00,60.8,57.2,29.69,SW,221,12.0,29.0,88,0.00,,,0.06,meteohub,2013-11-17 16:42:00,
2013-11-17 11:47:00,61.0,57.0,29.69,SW,228,15.0,29.0,87,0.00,,,0.06,meteohub,2013-11-17 16:47:00,
2013-11-17 11:52:00,61.3,57.4,29.69,South,182,22.0,34.0,87,0.00,,,0.06,meteohub,2013-11-17 16:52:00,
2013-11-17 11:57:00,61.5,57.4,29.69,SSW,199,22.0,35.0,86,0.00,,,0.06,meteohub,2013-11-17 16:57:00,
2013-11-17 12:02:00,61.5,57.4,29.68,SSW,195,16.0,35.0,86,0.00,,,0.06,meteohub,2013-11-17 17:02:00,
2013-11-17 12:07:00,61.9,57.6,29.68,SSW,192,31.0,35.0,86,0.00,,,0.06,meteohub,2013-11-17 17:07:00,
2013-11-17 12:12:00,62.2,57.7,29.68,SW,222,15.0,33.0,85,0.00,,,0.06,meteohub,2013-11-17 17:12:00,
2013-11-17 12:17:00,62.2,57.7,29.67,SSW,192,18.0,35.0,85,0.00,,,0.06,meteohub,2013-11-17 17:17:00,
2013-11-17 12:22:00,62.6,57.7,29.67,SW,221,17.0,35.0,84,0.00,,,0.06,meteohub,2013-11-17 17:22:00,
2013-11-17 12:27:00,63.0,57.7,29.67,SSW,207,22.0,37.0,83,0.00,,,0.06,meteohub,2013-11-17 17:27:00,
2013-11-17 12:32:00,63.0,58.1,29.66,SSW,194,22.0,45.0,84,0.00,,,0.06,meteohub,2013-11-17 17:32:00,
2013-11-17 12:37:00,62.6,57.7,29.67,SW,221,14.0,45.0,84,0.00,,,0.06,meteohub,2013-11-17 17:37:00,
2013-11-17 12:42:00,62.4,57.9,29.67,SW,224,16.0,34.0,85,0.00,,,0.06,meteohub,2013-11-17 17:42:00,
2013-11-17 12:47:00,62.4,57.9,29.67,SW,215,23.0,36.0,85,0.00,,,0.06,meteohub,2013-11-17 17:47:00,
2013-11-17 12:52:00,62.1,57.6,29.66,South,178,26.0,36.0,85,0.00,,,0.06,meteohub,2013-11-17 17:52:00,
2013-11-17 12:57:00,62.1,57.6,29.65,SSW,200,17.0,36.0,85,0.00,,,0.06,meteohub,2013-11-17 17:57:00,
2013-11-17 13:02:00,62.4,57.9,29.65,SW,215,21.0,38.0,85,0.00,,,0.06,meteohub,2013-11-17 18:02:00,
2013-11-17 13:07:00,62.4,57.9,29.64,South,190,30.0,38.0,85,0.00,,,0.06,meteohub,2013-11-17 18:07:00,
2013-11-17 13:12:00,62.2,57.7,29.65,SSW,205,23.0,38.0,85,0.00,,,0.06,meteohub,2013-11-17 18:12:00,
2013-11-17 13:17:00,62.1,58.1,29.64,SW,221,19.0,38.0,87,0.00,,,0.06,meteohub,2013-11-17 18:17:00,
2013-11-17 13:22:00,61.7,57.7,29.64,SW,223,23.0,33.0,87,0.00,,,0.06,meteohub,2013-11-17 18:22:00,
2013-11-17 13:27:00,61.9,57.9,29.64,SSW,198,16.0,33.0,87,0.00,,,0.06,meteohub,2013-11-17 18:27:00,
2013-11-17 13:32:00,61.9,57.9,29.64,South,187,17.0,36.0,87,0.00,,,0.06,meteohub,2013-11-17 18:32:00,
2013-11-17 13:37:00,61.9,57.9,29.63,SSW,208,22.0,38.0,87,0.00,,,0.06,meteohub,2013-11-17 18:37:00,
2013-11-17 13:42:00,61.9,57.9,29.63,South,186,22.0,43.0,87,0.00,,,0.06,meteohub,2013-11-17 18:42:00,
2013-11-17 13:47:00,61.9,57.9,29.62,South,183,17.0,43.0,87,0.00,,,0.06,meteohub,2013-11-17 18:47:00,
2013-11-17 13:52:00,61.9,57.9,29.61,SSW,197,23.0,43.0,87,0.00,,,0.06,meteohub,2013-11-17 18:52:00,
2013-11-17 13:57:00,62.1,58.1,29.61,SSE,165,11.0,35.0,87,0.00,,,0.06,meteohub,2013-11-17 18:57:00,
2013-11-17 14:02:00,62.2,58.3,29.61,SSW,200,18.0,33.0,87,0.00,,,0.06,meteohub,2013-11-17 19:02:00,
2013-11-17 14:07:00,62.2,57.9,29.61,SSW,194,38.0,38.0,86,0.00,,,0.06,meteohub,2013-11-17 19:07:00,
2013-11-17 14:12:00,62.8,58.5,29.60,SSE,167,22.0,38.0,86,0.00,,,0.06,meteohub,2013-11-17 19:12:00,
2013-11-17 14:17:00,63.3,58.8,29.60,SSW,206,23.0,38.0,85,0.00,,,0.06,meteohub,2013-11-17 19:17:00,
2013-11-17 14:22:00,63.7,59.0,29.59,SSW,212,18.0,38.0,85,0.00,,,0.06,meteohub,2013-11-17 19:22:00,
2013-11-17 14:27:00,63.5,58.8,29.59,South,182,31.0,34.0,85,0.00,,,0.06,meteohub,2013-11-17 19:27:00,
2013-11-17 14:32:00,63.5,58.6,29.59,South,179,13.0,35.0,84,0.00,,,0.06,meteohub,2013-11-17 19:32:00,
2013-11-17 14:37:00,63.3,58.8,29.59,SSW,210,21.0,35.0,85,0.00,,,0.06,meteohub,2013-11-17 19:37:00,
2013-11-17 14:42:00,63.3,58.8,29.58,South,174,15.0,39.0,85,0.00,,,0.06,meteohub,2013-11-17 19:42:00,
2013-11-17 14:47:00,63.3,58.8,29.58,South,174,12.0,39.0,85,0.00,,,0.06,meteohub,2013-11-17 19:47:00,
2013-11-17 14:52:00,63.3,58.8,29.58,SW,229,14.0,39.0,85,0.00,,,0.06,meteohub,2013-11-17 19:52:00,
2013-11-17 14:57:00,63.5,58.8,29.58,South,188,21.0,35.0,85,0.00,,,0.06,meteohub,2013-11-17 19:57:00,
2013-11-17 15:02:00,63.3,58.8,29.57,SW,216,12.0,33.0,85,0.00,,,0.06,meteohub,2013-11-17 20:02:00,
2013-11-17 15:07:00,63.7,59.0,29.57,SSW,194,11.0,35.0,85,0.00,,,0.06,meteohub,2013-11-17 20:07:00,
2013-11-17 15:12:00,63.9,59.2,29.56,SSW,194,16.0,39.0,85,0.00,,,0.06,meteohub,2013-11-17 20:12:00,
2013-11-17 15:17:00,63.9,59.2,29.56,South,173,18.0,39.0,85,0.00,,,0.06,meteohub,2013-11-17 20:17:00,
2013-11-17 15:22:00,64.0,59.4,29.56,SSW,197,21.0,39.0,85,0.00,,,0.06,meteohub,2013-11-17 20:22:00,
2013-11-17 15:27:00,64.0,59.2,29.55,SSW,196,23.0,37.0,84,0.00,,,0.06,meteohub,2013-11-17 20:27:00,
2013-11-17 15:32:00,64.0,59.4,29.55,SW,227,13.0,31.0,85,0.00,,,0.06,meteohub,2013-11-17 20:32:00,
2013-11-17 15:37:00,63.9,59.2,29.55,SSW,201,23.0,32.0,85,0.00,,,0.06,meteohub,2013-11-17 20:37:00,
2013-11-17 15:42:00,63.9,59.2,29.54,South,190,21.0,32.0,85,0.00,,,0.06,meteohub,2013-11-17 20:42:00,
2013-11-17 15:47:00,63.9,59.2,29.54,SSW,202,15.0,32.0,85,0.00,,,0.06,meteohub,2013-11-17 20:47:00,
2013-11-17 15:52:00,63.9,59.2,29.55,SSW,192,19.0,35.0,85,0.00,,,0.06,meteohub,2013-11-17 20:52:00,
2013-11-17 15:57:00,63.9,59.2,29.55,South,191,29.0,35.0,85,0.00,,,0.06,meteohub,2013-11-17 20:57:00,
2013-11-17 16:02:00,63.7,59.4,29.54,South,186,25.0,40.0,86,0.00,,,0.06,meteohub,2013-11-17 21:02:00,
2013-11-17 16:07:00,63.9,59.5,29.53,SSW,209,27.0,40.0,86,0.00,,,0.06,meteohub,2013-11-17 21:07:00,
2013-11-17 16:12:00,63.3,59.4,29.53,South,172,12.0,40.0,87,0.00,,,0.06,meteohub,2013-11-17 21:12:00,
2013-11-17 16:17:00,63.1,59.5,29.53,SSW,207,12.0,33.0,88,0.00,,,0.06,meteohub,2013-11-17 21:17:00,
2013-11-17 16:22:00,63.0,59.4,29.53,South,187,11.0,33.0,88,0.00,,,0.06,meteohub,2013-11-17 21:22:00,
2013-11-17 16:27:00,63.0,59.4,29.53,SSW,196,18.0,33.0,88,0.00,,,0.06,meteohub,2013-11-17 21:27:00,
2013-11-17 16:32:00,63.0,59.7,29.52,South,169,25.0,30.0,89,0.00,,,0.06,meteohub,2013-11-17 21:32:00,
2013-11-17 16:37:00,62.8,59.2,29.52,South,175,22.0,30.0,88,0.00,,,0.06,meteohub,2013-11-17 21:37:00,
2013-11-17 16:42:00,62.8,59.5,29.52,South,190,24.0,29.0,89,0.00,,,0.06,meteohub,2013-11-17 21:42:00,
2013-11-17 16:47:00,62.8,59.5,29.50,SW,219,25.0,32.0,89,0.00,,,0.06,meteohub,2013-11-17 21:47:00,
2013-11-17 16:52:00,62.8,59.5,29.50,SSW,211,19.0,33.0,89,0.00,,,0.06,meteohub,2013-11-17 21:52:00,
2013-11-17 16:57:00,62.8,59.5,29.51,SSW,195,22.0,33.0,89,0.00,,,0.06,meteohub,2013-11-17 21:57:00,
2013-11-17 17:02:00,62.8,59.5,29.50,SSW,200,25.0,33.0,89,0.00,,,0.06,meteohub,2013-11-17 22:02:00,
2013-11-17 17:07:00,63.0,59.4,29.50,SSW,192,26.0,31.0,88,0.00,,,0.06,meteohub,2013-11-17 22:07:00,
2013-11-17 17:12:00,63.0,59.4,29.50,SSW,194,11.0,31.0,88,0.00,,,0.06,meteohub,2013-11-17 22:12:00,
2013-11-17 17:17:00,63.0,59.4,29.50,SSW,211,17.0,32.0,88,0.00,,,0.06,meteohub,2013-11-17 22:17:00,
2013-11-17 17:22:00,63.0,59.4,29.50,SSW,203,21.0,32.0,88,0.00,,,0.06,meteohub,2013-11-17 22:22:00,
2013-11-17 17:27:00,63.1,59.5,29.49,South,186,18.0,27.0,88,0.00,,,0.06,meteohub,2013-11-17 22:27:00,
2013-11-17 17:32:00,63.1,59.2,29.49,SW,215,12.0,32.0,87,0.00,,,0.06,meteohub,2013-11-17 22:32:00,
2013-11-17 17:37:00,63.1,59.2,29.49,SSW,209,21.0,32.0,87,0.00,,,0.06,meteohub,2013-11-17 22:37:00,
2013-11-17 17:42:00,63.1,59.2,29.47,SSW,202,20.0,32.0,87,0.00,,,0.06,meteohub,2013-11-17 22:42:00,
2013-11-17 17:47:00,63.3,59.4,29.46,SSW,192,16.0,30.0,87,0.00,,,0.06,meteohub,2013-11-17 22:47:00,
2013-11-17 17:52:00,63.3,59.4,29.45,SSE,159,18.0,30.0,87,0.00,,,0.06,meteohub,2013-11-17 22:52:00,
2013-11-17 17:57:00,63.3,59.4,29.46,SSW,192,25.0,30.0,87,0.00,,,0.06,meteohub,2013-11-17 22:57:00,
2013-11-17 18:02:00,63.5,59.5,29.45,SSE,165,18.0,29.0,87,0.00,,,0.06,meteohub,2013-11-17 23:02:00,
2013-11-17 18:07:00,63.7,59.4,29.45,South,182,20.0,38.0,86,0.00,,,0.06,meteohub,2013-11-17 23:07:00,
2013-11-17 18:12:00,63.7,59.4,29.45,SSW,194,14.0,38.0,86,0.00,,,0.06,meteohub,2013-11-17 23:12:00,
2013-11-17 18:17:00,63.7,59.4,29.45,SSW,211,14.0,38.0,86,0.00,,,0.06,meteohub,2013-11-17 23:17:00,
2013-11-17 18:22:00,63.9,59.5,29.45,SW,218,17.0,38.0,86,0.00,,,0.06,meteohub,2013-11-17 23:22:00,
2013-11-17 18:27:00,63.7,59.4,29.44,South,185,24.0,38.0,86,0.00,,,0.06,meteohub,2013-11-17 23:27:00,
2013-11-17 18:32:00,63.9,59.5,29.43,SSW,198,34.0,38.0,86,0.00,,,0.06,meteohub,2013-11-17 23:32:00,
2013-11-17 18:37:00,63.9,59.2,29.42,SW,221,27.0,34.0,85,0.00,,,0.06,meteohub,2013-11-17 23:37:00,
2013-11-17 18:42:00,63.9,59.5,29.42,South,175,15.0,34.0,86,0.00,,,0.06,meteohub,2013-11-17 23:42:00,
2013-11-17 18:47:00,64.0,59.4,29.40,SSE,152,10.0,34.0,85,0.00,,,0.06,meteohub,2013-11-17 23:47:00,
2013-11-17 18:52:00,63.9,59.2,29.39,SSW,211,15.0,35.0,85,0.00,,,0.06,meteohub,2013-11-17 23:52:00,
2013-11-17 18:57:00,63.9,59.2,29.39,South,183,29.0,35.0,85,0.00,,,0.06,meteohub,2013-11-17 23:57:00,
2013-11-17 19:02:00,64.0,59.4,29.37,South,184,22.0,40.0,85,0.00,,,0.06,meteohub,2013-11-18 00:02:00,
2013-11-17 19:07:00,64.0,59.4,29.36,South,188,16.0,41.0,85,0.00,,,0.00,meteohub,2013-11-18 00:07:00,
2013-11-17 19:12:00,64.0,59.4,29.35,South,180,27.0,41.0,85,0.00,,,0.00,meteohub,2013-11-18 00:12:00,
2013-11-17 19:17:00,64.0,59.4,29.34,South,176,20.0,42.0,85,0.00,,,0.00,meteohub,2013-11-18 00:17:00,
2013-11-17 19:22:00,64.0,59.4,29.33,South,186,33.0,42.0,85,0.00,,,0.00,meteohub,2013-11-18 00:22:00,
2013-11-17 19:28:00,64.0,59.4,29.32,SSW,211,20.0,47.0,85,0.00,,,0.00,meteohub,2013-11-18 00:28:00,
2013-11-17 19:33:00,64.0,59.7,29.32,SSW,204,32.0,47.0,86,0.00,,,0.00,meteohub,2013-11-18 00:33:00,
2013-11-17 19:38:00,63.9,59.5,29.33,SSW,198,23.0,47.0,86,0.00,,,0.00,meteohub,2013-11-18 00:38:00,
2013-11-17 19:43:00,63.9,59.5,29.33,SSW,212,25.0,48.0,86,0.00,,,0.00,meteohub,2013-11-18 00:43:00,
2013-11-17 19:48:00,63.7,59.7,29.33,SW,223,20.0,48.0,87,0.00,,,0.00,meteohub,2013-11-18 00:48:00,
2013-11-17 19:53:00,63.7,59.7,29.34,South,178,35.0,48.0,87,0.00,,,0.00,meteohub,2013-11-18 00:53:00,
2013-11-17 19:58:00,63.7,59.7,29.34,SW,224,25.0,41.0,87,0.00,,,0.00,meteohub,2013-11-18 00:58:00,
2013-11-17 20:03:00,63.1,59.5,29.36,SW,223,18.0,44.0,88,0.00,,,0.00,meteohub,2013-11-18 01:03:00,
2013-11-17 20:09:00,63.0,59.7,29.37,SW,224,20.0,44.0,89,0.00,,,0.00,meteohub,2013-11-18 01:09:00,
2013-11-17 20:14:00,62.1,59.7,29.35,SW,214,16.0,44.0,92,0.01,,,0.01,meteohub,2013-11-18 01:14:00,
2013-11-17 20:19:00,61.5,59.2,29.35,SW,226,21.0,44.0,92,0.06,,,0.06,meteohub,2013-11-18 01:19:00,
2013-11-17 20:24:00,61.7,59.7,29.34,South,178,18.0,37.0,93,0.06,,,0.06,meteohub,2013-11-18 01:24:00,
2013-11-17 20:29:00,61.7,59.7,29.35,SSW,194,22.0,35.0,93,0.06,,,0.06,meteohub,2013-11-18 01:29:00,
2013-11-17 20:34:00,61.3,59.5,29.35,South,184,15.0,35.0,94,0.07,,,0.07,meteohub,2013-11-18 01:34:00,
2013-11-17 20:40:00,61.3,59.5,29.34,South,180,18.0,35.0,94,0.07,,,0.07,meteohub,2013-11-18 01:40:00,
2013-11-17 20:45:00,61.3,59.5,29.34,South,172,22.0,35.0,94,0.07,,,0.08,meteohub,2013-11-18 01:45:00,
2013-11-17 20:50:00,61.3,59.5,29.33,SSE,162,15.0,33.0,94,0.08,,,0.08,meteohub,2013-11-18 01:50:00,
2013-11-17 20:55:00,61.2,59.4,29.33,SSE,167,20.0,33.0,94,0.10,,,0.10,meteohub,2013-11-18 01:55:00,
2013-11-17 21:00:00,61.0,59.2,29.33,West,276,51.0,51.0,94,0.11,,,0.11,meteohub,2013-11-18 02:00:00,
2013-11-17 21:05:00,53.4,51.4,29.42,West,267,33.0,56.0,93,0.12,,,0.12,meteohub,2013-11-18 02:05:00,
2013-11-17 21:10:00,50.9,50.5,29.41,WSW,250,24.0,56.0,99,0.23,,,0.25,meteohub,2013-11-18 02:10:00,
2013-11-17 21:16:00,51.1,51.1,29.39,WSW,254,36.0,56.0,100,0.24,,,0.30,meteohub,2013-11-18 02:16:00,
2013-11-17 21:21:00,50.9,50.9,29.38,SW,233,35.0,44.0,100,0.26,,,0.32,meteohub,2013-11-18 02:21:00,
2013-11-17 21:26:00,50.7,50.7,29.38,SW,229,27.0,46.0,100,0.26,,,0.33,meteohub,2013-11-18 02:26:00,
2013-11-17 21:31:00,50.7,50.7,29.38,SW,219,24.0,46.0,100,0.28,,,0.35,meteohub,2013-11-18 02:31:00,
2013-11-17 21:36:00,50.7,50.7,29.37,WSW,238,20.0,41.0,100,0.29,,,0.36,meteohub,2013-11-18 02:36:00,
2013-11-17 21:41:00,50.7,50.7,29.37,SW,226,18.0,39.0,100,0.30,,,0.37,meteohub,2013-11-18 02:41:00,
2013-11-17 21:46:00,50.9,50.9,29.35,SSW,200,17.0,45.0,100,0.30,,,0.38,meteohub,2013-11-18 02:46:00,
2013-11-17 21:51:00,51.1,51.1,29.33,SSW,210,16.0,45.0,100,0.29,,,0.38,meteohub,2013-11-18 02:51:00,
2013-11-17 21:57:00,51.6,51.6,29.33,SSW,205,15.0,45.0,100,0.27,,,0.38,meteohub,2013-11-18 02:57:00,
2013-11-17 22:02:00,52.5,52.5,29.33,SW,218,18.0,39.0,100,0.26,,,0.38,meteohub,2013-11-18 03:02:00,
2013-11-17 22:07:00,54.0,54.0,29.34,SW,221,16.0,33.0,100,0.20,,,0.38,meteohub,2013-11-18 03:07:00,
2013-11-17 22:12:00,56.7,56.7,29.31,SSW,203,16.0,40.0,100,0.12,,,0.38,meteohub,2013-11-18 03:12:00,
2013-11-17 22:17:00,58.6,55.0,29.30,SW,227,18.0,42.0,88,0.08,,,0.38,meteohub,2013-11-18 03:17:00,
2013-11-17 22:22:00,60.1,50.7,29.29,SW,232,20.0,42.0,71,0.05,,,0.38,meteohub,2013-11-18 03:22:00,
2013-11-17 22:27:00,61.3,49.5,29.29,SW,223,17.0,31.0,65,0.04,,,0.38,meteohub,2013-11-18 03:27:00,
2013-11-17 22:32:00,61.9,49.6,29.30,WSW,238,18.0,28.0,64,0.03,,,0.38,meteohub,2013-11-18 03:32:00,
2013-11-17 22:37:00,62.2,49.1,29.31,SW,228,31.0,31.0,62,0.02,,,0.38,meteohub,2013-11-18 03:37:00,
2013-11-17 22:42:00,62.2,49.5,29.33,WSW,246,18.0,40.0,63,0.01,,,0.38,meteohub,2013-11-18 03:42:00,
2013-11-17 22:47:00,62.1,49.3,29.33,WSW,242,18.0,40.0,63,0.00,,,0.38,meteohub,2013-11-18 03:47:00,
2013-11-17 22:52:00,61.0,49.5,29.34,WSW,246,22.0,40.0,66,0.00,,,0.38,meteohub,2013-11-18 03:52:00,
2013-11-17 22:57:00,58.3,48.9,29.36,WSW,252,46.0,46.0,71,0.00,,,0.38,meteohub,2013-11-18 03:57:00,
2013-11-17 23:02:00,56.5,49.3,29.35,West,263,38.0,47.0,77,0.00,,,0.38,meteohub,2013-11-18 04:02:00,
2013-11-17 23:07:00,54.7,49.3,29.36,West,265,31.0,47.0,82,0.00,,,0.38,meteohub,2013-11-18 04:07:00,
2013-11-17 23:12:00,53.4,49.1,29.37,West,265,28.0,47.0,85,0.00,,,0.38,meteohub,2013-11-18 04:12:00,
2013-11-17 23:17:00,53.1,48.7,29.38,West,274,33.0,45.0,85,0.00,,,0.38,meteohub,2013-11-18 04:17:00,
2013-11-17 23:22:00,52.9,48.7,29.38,West,259,32.0,43.0,86,0.00,,,0.38,meteohub,2013-11-18 04:22:00,
2013-11-17 23:27:00,52.5,47.8,29.37,West,260,42.0,48.0,84,0.00,,,0.38,meteohub,2013-11-18 04:27:00,
2013-11-17 23:32:00,52.7,47.1,29.38,West,265,36.0,48.0,81,0.00,,,0.38,meteohub,2013-11-18 04:32:00,
2013-11-17 23:37:00,52.5,46.9,29.39,WSW,257,42.0,51.0,81,0.00,,,0.38,meteohub,2013-11-18 04:37:00,
2013-11-17 23:42:00,52.5,46.9,29.39,WSW,249,33.0,54.0,81,0.00,,,0.38,meteohub,2013-11-18 04:42:00,
2013-11-17 23:47:00,52.2,47.1,29.39,WSW,257,48.0,54.0,83,0.00,,,0.38,meteohub,2013-11-18 04:47:00,
2013-11-17 23:52:00,52.3,47.3,29.40,WSW,257,30.0,54.0,83,0.00,,,0.38,meteohub,2013-11-18 04:52:00,
2013-11-17 23:57:00,52.0,47.7,29.41,WSW,258,35.0,48.0,85,0.00,,,0.38,meteohub,2013-11-18 04:57:00,